Torna al catalogo

ATLAS 5 CENTAUR DEB

LostHEO
NORAD 46849·DEBRIS·🇺🇸 United States

Lanciato Oct 17, 2018 da Cape Canaveral Space Force Station

Loading…

Prossimi Passaggi (prossime 24 ore)

TLE

ObsoletoSource: Space-Track

Epoca: Jan 3, 2025, 12:40 UTC

1 46849U 18079DE  25003.52808240 -.00000111  00000-0  00000+0 0  9998
2 46849  13.1211  86.0857 5236048 198.6351 130.9870  1.63694718 24961

Traccia ATLAS 5 CENTAUR DEB in tempo reale con AllMySat

Download on the App Store